Weather History for Bentonville, AR

Change the Weather History Date:

Tuesday, April 9, 2013

  Actual Average Record
Temperature  
Mean Temperature 71 °F -  
Max Temperature 80 °F 64 °F 86 °F (2011)
Min Temperature 62 °F 41 °F 27 °F (1962)
Cooling Degree Days 6    
Growing Degree Days 21 (Base 50)    
Moisture  
Dew Point 57 °F    
Average Humidity 63    
Maximum Humidity 73    
Minimum Humidity 50    
Precipitation  
Precipitation 0.00 in - - ()
Sea Level Pressure  
Sea Level Pressure 29.75 in    
Wind  
Wind Speed 12 mph (SSE)    
Max Wind Speed 20 mph    
Max Gust Speed 24 mph    
Visibility 10 miles    
Events      
Averages and records for this station are not official NWS values.
T = Trace of Precipitation, MM = Missing Value Source: NWS Daily Summary

Daily Weather History Graph

Daily Weather History Graph

Search for Another Location

Airport:

Trip Planner

Search our weather history database for the weather conditions in past years. The results will help you decide how hot, cold, wet, or windy it might be!

Date:

Astronomy

Apr. 09, 2013 Rise Set
Actual Time 6:51 AM CDT 7:46 PM CDT
Civil Twilight 6:25 AM CDT 8:12 PM CDT
Nautical Twilight 5:53 AM CDT 8:43 PM CDT
Astronomical Twilight 5:21 AM CDT 9:15 PM CDT
Moon 6:13 AM CDT (4/9) 7:22 PM CDT (4/9)
Length of Visible Light 13h 47m
Length of Day
12h 54m
Waning Crescent, 1% of the Moon is Illuminated
Apr 9
Waning Crescent
Apr 10
New
Apr 18
First Quarter
Apr 25
Full
May 2
Last Quarter

Hourly Weather History & Observations

Time (CDT) Temp. Heat Index Dew Point Humidity Pressure Visibility Wind Dir Wind Speed Gust Speed Precip Events Conditions
12:15 AM 69.8 °F - 55.4 °F 60% 29.73 in 10.0 mi South 10.4 mph - N/A   Overcast
12:35 AM 69.8 °F - 55.4 °F 60% 29.74 in 10.0 mi South 11.5 mph - N/A   Overcast
12:55 AM 69.8 °F - 55.4 °F 60% 29.74 in 10.0 mi South 10.4 mph 18.4 mph N/A   Overcast
1:15 AM 69.8 °F - 55.4 °F 60% 29.74 in 10.0 mi SSE 13.8 mph - N/A   Overcast
1:35 AM 69.8 °F - 55.4 °F 60% 29.74 in 10.0 mi South 11.5 mph - N/A   Overcast
1:55 AM 69.8 °F - 55.4 °F 60% 29.74 in 10.0 mi South 15.0 mph - N/A   Overcast
2:15 AM 69.8 °F - 55.4 °F 60% 29.74 in 10.0 mi South 15.0 mph 21.9 mph N/A   Overcast
2:35 AM 68.0 °F - 55.4 °F 64% 29.73 in 10.0 mi South 9.2 mph - N/A   Overcast
2:55 AM 66.2 °F - 55.4 °F 68% 29.73 in 10.0 mi South 13.8 mph 20.7 mph N/A   Overcast
3:15 AM 66.2 °F - 55.4 °F 68% 29.73 in 10.0 mi South 9.2 mph 18.4 mph N/A   Overcast
3:35 AM 66.2 °F - 55.4 °F 68% 29.72 in 10.0 mi South 15.0 mph 20.7 mph N/A   Scattered Clouds
3:55 AM 66.2 °F - 55.4 °F 68% 29.71 in 10.0 mi South 13.8 mph 20.7 mph N/A   Clear
4:15 AM 64.4 °F - 55.4 °F 73% 29.71 in 10.0 mi South 13.8 mph 21.9 mph N/A   Clear
4:35 AM 64.4 °F - 55.4 °F 73% 29.72 in 10.0 mi South 12.7 mph 20.7 mph N/A   Clear
4:55 AM 64.4 °F - 55.4 °F 73% 29.72 in 10.0 mi South 10.4 mph - N/A   Clear
5:15 AM 64.4 °F - 53.6 °F 68% 29.73 in 10.0 mi South 8.1 mph 16.1 mph N/A   Clear
5:35 AM 64.4 °F - 53.6 °F 68% 29.73 in 10.0 mi South 9.2 mph - N/A   Partly Cloudy
5:55 AM 62.6 °F - 53.6 °F 72% 29.74 in 10.0 mi South 10.4 mph 16.1 mph N/A   Scattered Clouds
6:15 AM 64.4 °F - 53.6 °F 68% 29.74 in 10.0 mi SSE 10.4 mph - N/A   Mostly Cloudy
6:35 AM 64.4 °F - 53.6 °F 68% 29.74 in 10.0 mi SSE 11.5 mph - N/A   Overcast
6:55 AM 64.4 °F - 53.6 °F 68% 29.74 in 10.0 mi SSE 12.7 mph - N/A   Overcast
7:15 AM 64.4 °F - 55.4 °F 73% 29.74 in 10.0 mi SSE 13.8 mph 18.4 mph N/A   Overcast
7:35 AM 64.4 °F - 55.4 °F 73% 29.75 in 10.0 mi SSE 10.4 mph - N/A   Overcast
7:55 AM 64.4 °F - 55.4 °F 73% 29.76 in 10.0 mi South 10.4 mph 16.1 mph N/A   Overcast
8:15 AM 66.2 °F - 55.4 °F 68% 29.76 in 10.0 mi South 9.2 mph 16.1 mph N/A   Overcast
8:35 AM 66.2 °F - 57.2 °F 73% 29.77 in 10.0 mi South 8.1 mph - N/A   Overcast
8:55 AM 66.2 °F - 57.2 °F 73% 29.77 in 10.0 mi South 10.4 mph - N/A   Overcast
9:15 AM 66.2 °F - 57.2 °F 73% 29.78 in 10.0 mi South 11.5 mph 16.1 mph N/A   Overcast
9:35 AM 66.2 °F - 57.2 °F 73% 29.78 in 10.0 mi South 9.2 mph - N/A   Overcast
9:55 AM 68.0 °F - 57.2 °F 68% 29.78 in 10.0 mi South 12.7 mph 19.6 mph N/A   Overcast
10:15 AM 69.8 °F - 57.2 °F 64% 29.78 in 10.0 mi South 13.8 mph 20.7 mph N/A   Overcast
10:35 AM 69.8 °F - 59.0 °F 68% 29.78 in 10.0 mi South 11.5 mph 17.3 mph N/A   Overcast
10:55 AM 69.8 °F - 59.0 °F 68% 29.79 in 10.0 mi South 15.0 mph 18.4 mph N/A   Overcast
11:15 AM 69.8 °F - 60.8 °F 73% 29.79 in 10.0 mi South 16.1 mph 23.0 mph N/A   Overcast
11:35 AM 71.6 °F - 60.8 °F 69% 29.79 in 10.0 mi South 15.0 mph 20.7 mph N/A   Mostly Cloudy
11:55 AM 71.6 °F - 60.8 °F 69% 29.79 in 10.0 mi South 13.8 mph 24.2 mph N/A   Overcast
12:15 PM 71.6 °F - 60.8 °F 69% 29.79 in 10.0 mi South 15.0 mph - N/A   Overcast
12:35 PM 73.4 °F - 60.8 °F 65% 29.78 in 10.0 mi SSE 12.7 mph 17.3 mph N/A   Overcast
12:55 PM 73.4 °F - 60.8 °F 65% 29.78 in 10.0 mi South 12.7 mph 21.9 mph N/A   Overcast
1:15 PM 75.2 °F - 60.8 °F 61% 29.77 in 10.0 mi SSE 16.1 mph - N/A   Overcast
1:35 PM 75.2 °F - 60.8 °F 61% 29.77 in 10.0 mi South 16.1 mph 21.9 mph N/A   Overcast
1:55 PM 73.4 °F - 60.8 °F 65% 29.77 in 10.0 mi South 13.8 mph - N/A   Overcast
2:15 PM 75.2 °F - 60.8 °F 61% 29.77 in 10.0 mi SSE 12.7 mph 21.9 mph N/A   Overcast
2:35 PM 75.2 °F - 60.8 °F 61% 29.78 in 10.0 mi South 11.5 mph 16.1 mph N/A   Mostly Cloudy
2:55 PM 75.2 °F - 60.8 °F 61% 29.77 in 10.0 mi SSE 12.7 mph - N/A   Scattered Clouds
3:15 PM 75.2 °F - 60.8 °F 61% 29.76 in 10.0 mi SSE 15.0 mph 19.6 mph N/A   Mostly Cloudy
3:35 PM 75.2 °F - 60.8 °F 61% 29.74 in 10.0 mi SSE 19.6 mph 24.2 mph N/A   Overcast
3:55 PM 78.8 °F - 60.8 °F 54% 29.74 in 10.0 mi SSE 16.1 mph 24.2 mph N/A   Overcast
4:15 PM 77.0 °F - 60.8 °F 57% 29.74 in 10.0 mi SSE 11.5 mph - N/A   Scattered Clouds
4:35 PM 75.2 °F - 59.0 °F 57% 29.74 in 10.0 mi SSE 10.4 mph - N/A   Scattered Clouds
4:55 PM 75.2 °F - 59.0 °F 57% 29.73 in 10.0 mi SSE 13.8 mph 18.4 mph N/A   Scattered Clouds
5:15 PM 80.6 °F 81.5 °F 60.8 °F 51% 29.73 in 10.0 mi SSE 13.8 mph - N/A   Overcast
5:35 PM 77.0 °F - 59.0 °F 54% 29.74 in 10.0 mi SSE 8.1 mph - N/A   Mostly Cloudy
5:55 PM 77.0 °F - 59.0 °F 54% 29.73 in 10.0 mi SSE 9.2 mph - N/A   Mostly Cloudy
6:15 PM 77.0 °F - 59.0 °F 54% 29.73 in 10.0 mi SSE 10.4 mph 16.1 mph N/A   Overcast
6:35 PM 77.0 °F - 57.2 °F 50% 29.74 in 10.0 mi SSE 12.7 mph 19.6 mph N/A   Mostly Cloudy
6:55 PM 77.0 °F - 57.2 °F 50% 29.74 in 10.0 mi SSE 11.5 mph - N/A   Overcast
7:15 PM 75.2 °F - 57.2 °F 53% 29.74 in 10.0 mi SE 15.0 mph - N/A   Overcast
7:35 PM 75.2 °F - 57.2 °F 53% 29.74 in 10.0 mi SSE 12.7 mph - N/A   Mostly Cloudy
7:55 PM 75.2 °F - 55.4 °F 50% 29.75 in 10.0 mi SE 11.5 mph 16.1 mph N/A   Mostly Cloudy
8:15 PM 73.4 °F - 55.4 °F 53% 29.75 in 10.0 mi SE 8.1 mph - N/A   Scattered Clouds
8:35 PM 73.4 °F - 55.4 °F 53% 29.76 in 10.0 mi SSE 9.2 mph - N/A   Mostly Cloudy
8:55 PM 71.6 °F - 55.4 °F 57% 29.76 in 10.0 mi SSE 9.2 mph - N/A   Partly Cloudy
9:15 PM 71.6 °F - 55.4 °F 57% 29.76 in 10.0 mi SE 9.2 mph - N/A   Partly Cloudy
9:55 PM 71.6 °F - 55.4 °F 57% 29.76 in 10.0 mi SSE 9.2 mph - N/A   Scattered Clouds
10:15 PM 71.6 °F - 55.4 °F 57% 29.75 in 10.0 mi SSE 9.2 mph - N/A   Scattered Clouds
10:35 PM 71.6 °F - 57.2 °F 60% 29.74 in 10.0 mi SSE 8.1 mph - N/A   Partly Cloudy
10:55 PM 73.4 °F - 57.2 °F 57% 29.74 in 10.0 mi South 13.8 mph 17.3 mph N/A   Clear
11:15 PM 73.4 °F - 59.0 °F 61% 29.73 in 10.0 mi South 15.0 mph 23.0 mph N/A   Clear
11:35 PM 73.4 °F - 59.0 °F 61% 29.74 in 10.0 mi South 12.7 mph 23.0 mph N/A   Clear
11:55 PM 73.4 °F - 60.8 °F 65% 29.73 in 10.0 mi South 13.8 mph 21.9 mph N/A   Clear